Home   Weather   Zwettl   Past weeks
Flag for Austria

Past Weather in Zwettl, Lower Austria, Austria — Yesterday and Last 2 Weeks

Now
68 °F

Mild.


Feels Like: 68 °F
Forecast: 80 / 57 °F
Wind: 5 mph from Northeast

Location: Retz

Current Time: Jun 18, 2019 at 2:54:17 am

Latest Report: Jun 18, 2019 at 1:00 am


Visibility: N/A

Pressure: 30.07 "Hg (28.28 "Hg at 524m altitude)

Humidity: 59%

Dew Point: 53 °F

Location of ZwettlLocation

Past Weather in Zwettl — Graph

°F

Zwettl Temperature Yesterday

Maximum temperature yesterday: 78 °F (at 5:00 pm)
Minimum temperature yesterday: 61 °F (at 5:00 am)
Average temperature yesterday: 70 °F

High & Low Weather Summary for the Past Weeks

 TemperatureHumidityPressure
High89 °F (Jun 15, 5:00 pm)98% (Jun 13, 6:00 am)30.27 "Hg (Jun 13, 6:00 am)
Low60 °F (Jun 9, 6:00 am)34% (Jun 8, 7:00 pm)29.72 "Hg (Jun 5, 6:00 pm)
Average73 °F66%29.93 "Hg
* Reported Jun 3 1:00 am — Jun 18 1:00 am, Zwettl. Weather by CustomWeather, © 2019

Note: Actual official high and low records may vary slightly from our data, if they occured in-between our weather recording intervals... More about our weather records

Advertising

Zwettl Weather History for the Previous 24 Hours

Scroll right to see more
 ConditionsComfort  
Time TempWeatherWind HumidityBarometerVisibility
1:00 am
Tue, Jun 18
68 °FMild.5 mph59%30.07 "HgN/A
12:00 am68 °FMild.6 mph58%30.07 "HgN/A
11:00 pm
Mon, Jun 17
68 °FMild.5 mph60%30.07 "HgN/A
10:00 pm69 °FMild.3 mph62%30.07 "HgN/A
9:00 pm71 °FMild.3 mph60%30.05 "HgN/A
8:00 pm73 °FScattered clouds.6 mph55%30.04 "Hg16 mi
6:00 pm76 °FMild.6 mph50%30.04 "HgN/A
5:00 pm78 °FWarm.3 mph46%30.05 "HgN/A
4:00 pm78 °FWarm.5 mph48%30.07 "HgN/A
3:00 pm76 °FMild.5 mph48%30.08 "HgN/A
2:00 pm77 °FPartly sunny.3 mph49%30.08 "Hg16 mi
1:00 pm76 °FMild.2 mph51%30.10 "HgN/A
12:00 pm74 °FMild.5 mph51%30.11 "HgN/A
11:00 am76 °FMild.5 mph48%30.11 "HgN/A
10:00 am73 °FMild.6 mph55%30.12 "HgN/A
9:00 am70 °FMild.6 mph61%30.12 "HgN/A
7:00 am62 °FPartly sunny.3 mph77%30.14 "Hg11 mi
6:00 am61 °FCool.3 mph79%30.14 "HgN/A
5:00 am61 °FCool.5 mph80%30.12 "HgN/A
4:00 am62 °FCool.5 mph77%30.12 "HgN/A
3:00 am62 °FMild.5 mph77%30.13 "HgN/A
2:00 am63 °FMild.3 mph76%30.11 "HgN/A
Weather by CustomWeather, © 2019

See weather overview